Time,TemperatureF,DewpointF,PressureIn,WindDirection,WindDirectionDegrees,WindSpeedMPH,WindSpeedGustMPH,Humidity,HourlyPrecipIn,Conditions,Clouds,dailyrainin,SoftwareType,DateUTC
2013-07-13 00:01:00,75.0,74.7,29.95,ENE,75,0.0,1.0,99,0.00,,,2.11,VWS V14.00,2013-07-13 04:01:00,
2013-07-13 00:03:00,75.0,74.7,29.95,ENE,75,0.0,0.0,99,0.00,,,0.00,VWS V14.00,2013-07-13 04:03:00,
2013-07-13 00:04:00,75.0,74.7,29.95,ENE,75,0.0,0.0,99,0.00,,,0.00,VWS V14.00,2013-07-13 04:04:00,
2013-07-13 00:09:00,75.0,74.7,29.94,ENE,75,0.0,0.0,99,0.00,,,0.00,VWS V14.00,2013-07-13 04:09:00,
2013-07-13 00:14:00,75.0,74.7,29.95,South,191,1.0,2.0,99,0.00,,,0.00,VWS V14.00,2013-07-13 04:14:00,
2013-07-13 00:20:00,75.0,74.7,29.94,South,191,0.0,2.0,99,0.01,,,0.01,VWS V14.00,2013-07-13 04:20:00,
2013-07-13 00:25:00,75.0,74.7,29.95,South,191,0.0,1.0,99,0.02,,,0.02,VWS V14.00,2013-07-13 04:25:00,
2013-07-13 00:30:00,75.0,74.7,29.95,South,191,0.0,1.0,99,0.03,,,0.03,VWS V14.00,2013-07-13 04:30:00,
2013-07-13 00:35:00,75.0,74.7,29.94,South,191,0.0,0.0,99,0.04,,,0.04,VWS V14.00,2013-07-13 04:35:00,
2013-07-13 00:40:00,75.0,74.7,29.95,South,191,0.0,1.0,99,0.05,,,0.05,VWS V14.00,2013-07-13 04:40:00,
2013-07-13 00:46:00,74.9,74.6,29.94,South,191,0.0,0.0,99,0.05,,,0.05,VWS V14.00,2013-07-13 04:46:00,
2013-07-13 00:51:00,74.9,74.6,29.94,South,191,0.0,2.0,99,0.07,,,0.07,VWS V14.00,2013-07-13 04:51:00,
2013-07-13 00:56:00,74.9,74.6,29.94,South,191,0.0,1.0,99,0.07,,,0.07,VWS V14.00,2013-07-13 04:56:00,
2013-07-13 01:01:00,74.8,74.5,29.95,South,191,0.0,1.0,99,0.08,,,0.08,VWS V14.00,2013-07-13 05:01:00,
2013-07-13 01:06:00,74.7,74.4,29.95,South,191,0.0,0.0,99,0.10,,,0.10,VWS V14.00,2013-07-13 05:06:00,
2013-07-13 01:11:00,74.6,74.3,29.94,South,191,0.0,0.0,99,0.11,,,0.11,VWS V14.00,2013-07-13 05:11:00,
2013-07-13 01:16:00,74.6,74.3,29.94,South,191,0.0,0.0,99,0.13,,,0.13,VWS V14.00,2013-07-13 05:16:00,
2013-07-13 01:22:00,74.5,74.2,29.94,South,191,0.0,0.0,99,0.13,,,0.14,VWS V14.00,2013-07-13 05:22:00,
2013-07-13 01:27:00,74.5,74.2,29.95,South,191,1.0,1.0,99,0.15,,,0.16,VWS V14.00,2013-07-13 05:27:00,
2013-07-13 01:32:00,74.5,74.2,29.94,SSW,198,1.0,1.0,99,0.13,,,0.16,VWS V14.00,2013-07-13 05:32:00,
2013-07-13 01:37:00,74.5,74.2,29.94,SSW,197,0.0,1.0,99,0.13,,,0.16,VWS V14.00,2013-07-13 05:37:00,
2013-07-13 01:42:00,74.5,74.2,29.94,SSW,197,0.0,0.0,99,0.11,,,0.16,VWS V14.00,2013-07-13 05:42:00,
2013-07-13 01:47:00,74.4,74.1,29.94,SSW,196,0.0,1.0,99,0.11,,,0.16,VWS V14.00,2013-07-13 05:47:00,
2013-07-13 01:53:00,74.4,74.1,29.94,SSW,197,0.0,0.0,99,0.09,,,0.16,VWS V14.00,2013-07-13 05:53:00,
2013-07-13 01:58:00,74.4,74.1,29.94,SSW,197,0.0,0.0,99,0.09,,,0.16,VWS V14.00,2013-07-13 05:58:00,
2013-07-13 02:03:00,74.4,74.1,29.93,SSW,197,0.0,0.0,99,0.08,,,0.16,VWS V14.00,2013-07-13 06:03:00,
2013-07-13 02:08:00,74.4,74.1,29.93,SSW,198,0.0,0.0,99,0.08,,,0.16,VWS V14.00,2013-07-13 06:08:00,
2013-07-13 02:13:00,74.3,74.0,29.93,SSW,196,0.0,0.0,99,0.05,,,0.16,VWS V14.00,2013-07-13 06:13:00,
2013-07-13 02:18:00,74.3,74.0,29.93,SSW,197,0.0,0.0,99,0.05,,,0.16,VWS V14.00,2013-07-13 06:18:00,
2013-07-13 02:24:00,74.2,73.9,29.94,SSW,197,0.0,0.0,99,0.02,,,0.16,VWS V14.00,2013-07-13 06:24:00,
2013-07-13 02:29:00,74.2,73.9,29.93,SSW,197,0.0,0.0,99,0.02,,,0.16,VWS V14.00,2013-07-13 06:29:00,
2013-07-13 02:34:00,74.1,73.8,29.93,SSW,197,0.0,0.0,99,0.00,,,0.16,VWS V14.00,2013-07-13 06:34:00,
2013-07-13 02:39:00,74.0,73.7,29.94,SSW,197,0.0,0.0,99,0.00,,,0.16,VWS V14.00,2013-07-13 06:39:00,
2013-07-13 02:44:00,73.9,73.6,29.94,SSW,197,0.0,0.0,99,0.00,,,0.16,VWS V14.00,2013-07-13 06:44:00,
2013-07-13 02:49:00,73.9,73.6,29.94,SSW,196,0.0,0.0,99,0.00,,,0.16,VWS V14.00,2013-07-13 06:49:00,
2013-07-13 02:55:00,73.7,73.4,29.94,SSW,196,0.0,0.0,99,0.00,,,0.16,VWS V14.00,2013-07-13 06:55:00,
2013-07-13 03:00:00,73.7,73.4,29.94,SSW,197,0.0,0.0,99,0.00,,,0.16,VWS V14.00,2013-07-13 07:00:00,
2013-07-13 03:05:00,73.7,73.4,29.94,SSW,196,0.0,0.0,99,0.00,,,0.16,VWS V14.00,2013-07-13 07:05:00,
2013-07-13 03:10:00,73.7,73.4,29.94,SSW,196,0.0,0.0,99,0.00,,,0.16,VWS V14.00,2013-07-13 07:10:00,
2013-07-13 03:15:00,73.6,73.3,29.94,SSW,197,0.0,0.0,99,0.00,,,0.16,VWS V14.00,2013-07-13 07:15:00,
2013-07-13 03:20:00,73.5,73.2,29.94,SSW,197,0.0,0.0,99,0.00,,,0.16,VWS V14.00,2013-07-13 07:20:00,
2013-07-13 03:26:00,73.4,73.1,29.95,SSW,196,0.0,0.0,99,0.00,,,0.16,VWS V14.00,2013-07-13 07:26:00,
2013-07-13 03:31:00,73.3,73.0,29.95,SSW,197,0.0,0.0,99,0.00,,,0.16,VWS V14.00,2013-07-13 07:31:00,
2013-07-13 03:36:00,73.3,73.0,29.95,SSW,197,0.0,0.0,99,0.00,,,0.16,VWS V14.00,2013-07-13 07:36:00,
2013-07-13 03:41:00,73.4,73.1,29.95,SSW,197,0.0,0.0,99,0.00,,,0.16,VWS V14.00,2013-07-13 07:41:00,
2013-07-13 03:46:00,73.4,73.1,29.95,SSW,197,0.0,0.0,99,0.00,,,0.16,VWS V14.00,2013-07-13 07:46:00,
2013-07-13 03:52:00,73.5,73.2,29.95,SSW,197,0.0,0.0,99,0.00,,,0.16,VWS V14.00,2013-07-13 07:52:00,
2013-07-13 03:57:00,73.5,73.2,29.95,SSW,197,0.0,1.0,99,0.00,,,0.16,VWS V14.00,2013-07-13 07:57:00,
2013-07-13 04:02:00,73.5,73.2,29.95,South,190,0.0,0.0,99,0.00,,,0.16,VWS V14.00,2013-07-13 08:02:00,
2013-07-13 04:07:00,73.5,73.2,29.95,South,190,0.0,1.0,99,0.00,,,0.16,VWS V14.00,2013-07-13 08:07:00,
2013-07-13 04:12:00,73.5,73.2,29.95,South,182,0.0,1.0,99,0.00,,,0.16,VWS V14.00,2013-07-13 08:12:00,
2013-07-13 04:17:00,73.6,73.3,29.94,ENE,74,1.0,2.0,99,0.00,,,0.16,VWS V14.00,2013-07-13 08:17:00,
2013-07-13 04:23:00,73.6,73.3,29.94,ENE,74,0.0,1.0,99,0.00,,,0.16,VWS V14.00,2013-07-13 08:23:00,
2013-07-13 04:28:00,73.5,73.2,29.94,ENE,72,0.0,2.0,99,0.00,,,0.16,VWS V14.00,2013-07-13 08:28:00,
2013-07-13 04:33:00,73.6,73.3,29.94,ENE,72,1.0,2.0,99,0.00,,,0.16,VWS V14.00,2013-07-13 08:33:00,
2013-07-13 04:38:00,73.7,73.4,29.94,ENE,69,1.0,2.0,99,0.00,,,0.16,VWS V14.00,2013-07-13 08:38:00,
2013-07-13 04:43:00,73.7,73.4,29.94,ENE,67,1.0,2.0,99,0.00,,,0.16,VWS V14.00,2013-07-13 08:43:00,
2013-07-13 04:48:00,73.7,73.4,29.94,ENE,67,0.0,2.0,99,0.00,,,0.16,VWS V14.00,2013-07-13 08:48:00,
2013-07-13 04:54:00,73.8,73.5,29.94,ENE,67,1.0,1.0,99,0.00,,,0.16,VWS V14.00,2013-07-13 08:54:00,
2013-07-13 04:59:00,73.8,73.5,29.94,ENE,67,0.0,1.0,99,0.00,,,0.16,VWS V14.00,2013-07-13 08:59:00,
2013-07-13 05:04:00,73.9,73.6,29.94,ENE,67,0.0,1.0,99,0.01,,,0.17,VWS V14.00,2013-07-13 09:04:00,
2013-07-13 05:09:00,73.9,73.6,29.95,ENE,67,0.0,2.0,99,0.01,,,0.17,VWS V14.00,2013-07-13 09:09:00,
2013-07-13 05:14:00,74.0,73.7,29.95,ENE,67,0.0,0.0,99,0.01,,,0.17,VWS V14.00,2013-07-13 09:14:00,
2013-07-13 05:19:00,74.1,73.8,29.96,ENE,67,0.0,1.0,99,0.01,,,0.17,VWS V14.00,2013-07-13 09:19:00,
2013-07-13 05:25:00,74.1,73.8,29.95,ENE,67,0.0,1.0,99,0.01,,,0.17,VWS V14.00,2013-07-13 09:25:00,
2013-07-13 05:30:00,74.1,73.8,29.95,ENE,67,0.0,1.0,99,0.01,,,0.17,VWS V14.00,2013-07-13 09:30:00,
2013-07-13 05:35:00,74.0,73.7,29.95,ENE,67,0.0,0.0,99,0.01,,,0.17,VWS V14.00,2013-07-13 09:35:00,
2013-07-13 05:40:00,74.0,73.7,29.95,ENE,67,0.0,0.0,99,0.01,,,0.17,VWS V14.00,2013-07-13 09:40:00,
2013-07-13 05:45:00,74.1,73.8,29.95,ENE,67,0.0,0.0,99,0.01,,,0.17,VWS V14.00,2013-07-13 09:45:00,
2013-07-13 05:50:00,74.0,73.7,29.95,ENE,67,0.0,0.0,99,0.01,,,0.17,VWS V14.00,2013-07-13 09:50:00,
2013-07-13 05:56:00,74.0,73.7,29.95,ENE,67,1.0,1.0,99,0.01,,,0.17,VWS V14.00,2013-07-13 09:56:00,
2013-07-13 06:01:00,74.0,73.7,29.95,ENE,67,0.0,1.0,99,0.01,,,0.17,VWS V14.00,2013-07-13 10:01:00,
2013-07-13 06:06:00,73.9,73.6,29.96,ENE,67,0.0,0.0,99,0.00,,,0.17,VWS V14.00,2013-07-13 10:06:00,
2013-07-13 06:11:00,74.0,73.7,29.96,ENE,67,0.0,0.0,99,0.00,,,0.17,VWS V14.00,2013-07-13 10:11:00,
2013-07-13 06:16:00,74.0,73.7,29.97,ENE,65,0.0,0.0,99,0.00,,,0.17,VWS V14.00,2013-07-13 10:16:00,
2013-07-13 06:21:00,74.1,74.1,29.96,ENE,65,0.0,0.0,100,0.00,,,0.17,VWS V14.00,2013-07-13 10:21:00,
2013-07-13 06:26:00,74.1,73.8,29.96,ENE,66,0.0,0.0,99,0.00,,,0.17,VWS V14.00,2013-07-13 10:26:00,
2013-07-13 06:31:00,74.2,73.9,29.96,ENE,65,0.0,0.0,99,0.00,,,0.17,VWS V14.00,2013-07-13 10:31:00,
2013-07-13 06:37:00,74.2,73.9,29.96,ENE,65,1.0,1.0,99,0.00,,,0.17,VWS V14.00,2013-07-13 10:37:00,
2013-07-13 06:42:00,74.3,74.0,29.96,ENE,65,0.0,1.0,99,0.00,,,0.17,VWS V14.00,2013-07-13 10:42:00,
2013-07-13 06:47:00,74.3,74.0,29.96,ENE,66,0.0,1.0,99,0.00,,,0.17,VWS V14.00,2013-07-13 10:47:00,
2013-07-13 06:52:00,74.4,74.1,29.96,ENE,65,0.0,0.0,99,0.00,,,0.17,VWS V14.00,2013-07-13 10:52:00,
2013-07-13 06:57:00,74.5,74.5,29.97,ENE,65,0.0,0.0,100,0.00,,,0.17,VWS V14.00,2013-07-13 10:57:00,
2013-07-13 07:02:00,74.6,74.6,29.97,ENE,66,0.0,0.0,100,0.00,,,0.17,VWS V14.00,2013-07-13 11:02:00,
2013-07-13 07:08:00,74.7,74.7,29.97,ENE,65,0.0,0.0,100,0.00,,,0.17,VWS V14.00,2013-07-13 11:08:00,
2013-07-13 07:13:00,74.8,74.8,29.98,ENE,66,0.0,0.0,100,0.00,,,0.17,VWS V14.00,2013-07-13 11:13:00,
2013-07-13 07:18:00,75.1,75.1,29.98,ENE,66,0.0,0.0,100,0.00,,,0.17,VWS V14.00,2013-07-13 11:18:00,
2013-07-13 07:23:00,75.3,75.3,29.98,ENE,66,0.0,0.0,100,0.00,,,0.17,VWS V14.00,2013-07-13 11:23:00,
2013-07-13 07:24:00,75.3,75.3,29.98,ENE,66,1.0,1.0,100,0.00,,,0.17,VWS V14.00,2013-07-13 11:24:00,
2013-07-13 07:29:00,75.5,75.5,29.98,ENE,66,0.0,1.0,100,0.00,,,0.17,VWS V14.00,2013-07-13 11:29:00,
2013-07-13 07:34:00,75.6,75.6,29.98,ENE,66,0.0,0.0,100,0.00,,,0.17,VWS V14.00,2013-07-13 11:34:00,
2013-07-13 07:39:00,75.7,75.7,29.98,ENE,65,0.0,0.0,100,0.00,,,0.17,VWS V14.00,2013-07-13 11:39:00,
2013-07-13 07:44:00,75.8,75.8,29.98,ENE,66,0.0,0.0,100,0.00,,,0.17,VWS V14.00,2013-07-13 11:44:00,
2013-07-13 07:50:00,75.9,75.9,29.99,ENE,66,0.0,0.0,100,0.00,,,0.17,VWS V14.00,2013-07-13 11:50:00,
2013-07-13 07:55:00,76.0,76.0,29.99,ENE,66,0.0,0.0,100,0.00,,,0.17,VWS V14.00,2013-07-13 11:55:00,
2013-07-13 08:00:00,76.1,76.1,29.99,ENE,65,0.0,0.0,100,0.00,,,0.17,VWS V14.00,2013-07-13 12:00:00,
2013-07-13 08:05:00,76.2,76.2,29.99,ENE,66,0.0,0.0,100,0.00,,,0.17,VWS V14.00,2013-07-13 12:05:00,
2013-07-13 08:10:00,76.4,76.4,29.99,ENE,65,0.0,0.0,100,0.00,,,0.17,VWS V14.00,2013-07-13 12:10:00,
2013-07-13 08:15:00,76.6,76.6,29.99,ENE,65,0.0,0.0,100,0.00,,,0.17,VWS V14.00,2013-07-13 12:15:00,
2013-07-13 08:20:00,76.8,76.8,29.99,ENE,66,0.0,1.0,100,0.00,,,0.17,VWS V14.00,2013-07-13 12:20:00,
2013-07-13 08:25:00,77.1,77.1,29.99,ENE,65,0.0,1.0,100,0.00,,,0.17,VWS V14.00,2013-07-13 12:25:00,
2013-07-13 08:30:00,77.3,77.3,29.99,ENE,66,0.0,1.0,100,0.00,,,0.17,VWS V14.00,2013-07-13 12:30:00,
2013-07-13 08:36:00,77.7,77.7,29.99,ENE,65,0.0,0.0,100,0.00,,,0.17,VWS V14.00,2013-07-13 12:36:00,
2013-07-13 08:41:00,78.2,78.2,30.00,ENE,65,0.0,0.0,100,0.00,,,0.17,VWS V14.00,2013-07-13 12:41:00,
2013-07-13 08:46:00,78.6,78.6,30.00,South,175,0.0,1.0,100,0.00,,,0.17,VWS V14.00,2013-07-13 12:46:00,
2013-07-13 08:51:00,78.6,78.6,30.01,SSE,165,1.0,3.0,100,0.00,,,0.17,VWS V14.00,2013-07-13 12:51:00,
2013-07-13 08:56:00,78.1,78.1,30.01,SE,141,0.0,11.0,100,0.06,,,0.23,VWS V14.00,2013-07-13 12:56:00,
2013-07-13 09:01:00,77.6,77.6,30.01,SW,236,1.0,11.0,100,0.07,,,0.24,VWS V14.00,2013-07-13 13:01:00,
2013-07-13 09:06:00,77.2,76.9,30.01,NW,317,0.0,2.0,99,0.07,,,0.24,VWS V14.00,2013-07-13 13:06:00,
2013-07-13 09:11:00,77.1,76.8,30.01,NNW,344,1.0,2.0,99,0.07,,,0.24,VWS V14.00,2013-07-13 13:11:00,
2013-07-13 09:16:00,77.3,77.0,30.01,ESE,108,0.0,2.0,99,0.07,,,0.24,VWS V14.00,2013-07-13 13:16:00,
2013-07-13 09:22:00,78.0,78.0,30.01,SE,133,1.0,2.0,100,0.07,,,0.24,VWS V14.00,2013-07-13 13:22:00,
2013-07-13 09:27:00,78.2,77.9,30.01,East,96,0.0,3.0,99,0.07,,,0.24,VWS V14.00,2013-07-13 13:27:00,
2013-07-13 09:32:00,78.6,78.6,30.01,SE,133,1.0,7.0,100,0.07,,,0.24,VWS V14.00,2013-07-13 13:32:00,
2013-07-13 09:37:00,79.3,79.0,30.00,SE,126,0.0,7.0,99,0.07,,,0.24,VWS V14.00,2013-07-13 13:37:00,
2013-07-13 09:42:00,79.6,79.3,30.00,SE,126,0.0,2.0,99,0.07,,,0.24,VWS V14.00,2013-07-13 13:42:00,
2013-07-13 09:48:00,79.9,79.3,30.01,West,280,0.0,3.0,98,0.07,,,0.24,VWS V14.00,2013-07-13 13:48:00,
2013-07-13 09:53:00,79.8,78.6,30.00,ESE,111,1.0,7.0,96,0.07,,,0.24,VWS V14.00,2013-07-13 13:53:00,
2013-07-13 09:58:00,80.3,79.4,30.00,ESE,121,1.0,7.0,97,0.07,,,0.24,VWS V14.00,2013-07-13 13:58:00,
2013-07-13 10:03:00,80.7,78.8,30.01,South,190,0.0,5.0,94,0.00,,,0.24,VWS V14.00,2013-07-13 14:03:00,
2013-07-13 10:08:00,81.3,79.1,30.01,East,98,1.0,6.0,93,0.00,,,0.24,VWS V14.00,2013-07-13 14:08:00,
2013-07-13 10:13:00,81.7,78.8,30.01,SE,145,4.0,6.0,91,0.00,,,0.24,VWS V14.00,2013-07-13 14:13:00,
2013-07-13 10:19:00,81.4,78.2,30.00,SE,127,1.0,6.0,90,0.00,,,0.24,VWS V14.00,2013-07-13 14:19:00,
2013-07-13 10:24:00,81.0,78.1,30.00,ESE,111,4.0,4.0,91,0.00,,,0.24,VWS V14.00,2013-07-13 14:24:00,
2013-07-13 10:29:00,80.8,77.9,30.00,ESE,110,2.0,6.0,91,0.00,,,0.24,VWS V14.00,2013-07-13 14:29:00,
2013-07-13 10:34:00,80.7,78.5,30.01,ENE,74,0.0,2.0,93,0.00,,,0.24,VWS V14.00,2013-07-13 14:34:00,
2013-07-13 10:39:00,80.7,78.5,30.01,SSE,153,0.0,2.0,93,0.05,,,0.29,VWS V14.00,2013-07-13 14:39:00,
2013-07-13 10:44:00,80.6,78.7,30.00,ESE,107,0.0,3.0,94,0.05,,,0.29,VWS V14.00,2013-07-13 14:44:00,
2013-07-13 10:50:00,80.8,79.2,30.01,East,80,1.0,3.0,95,0.05,,,0.29,VWS V14.00,2013-07-13 14:50:00,
2013-07-13 10:55:00,81.0,79.8,30.01,NE,46,0.0,3.0,96,0.05,,,0.29,VWS V14.00,2013-07-13 14:55:00,
2013-07-13 11:00:00,80.7,79.1,30.01,ESE,109,1.0,4.0,95,0.06,,,0.30,VWS V14.00,2013-07-13 15:00:00,
2013-07-13 11:05:00,80.3,78.7,30.01,SE,136,1.0,3.0,95,0.06,,,0.30,VWS V14.00,2013-07-13 15:05:00,
2013-07-13 11:10:00,79.9,78.3,30.01,East,97,3.0,5.0,95,0.27,,,0.51,VWS V14.00,2013-07-13 15:10:00,
2013-07-13 11:16:00,79.5,78.3,30.01,ENE,74,1.0,2.0,96,0.32,,,0.56,VWS V14.00,2013-07-13 15:16:00,
2013-07-13 11:21:00,79.3,78.1,30.01,SE,128,0.0,2.0,96,0.32,,,0.56,VWS V14.00,2013-07-13 15:21:00,
2013-07-13 11:26:00,79.6,78.7,30.01,South,181,0.0,2.0,97,0.32,,,0.56,VWS V14.00,2013-07-13 15:26:00,
2013-07-13 11:31:00,79.4,78.5,30.01,ESE,112,0.0,3.0,97,0.32,,,0.56,VWS V14.00,2013-07-13 15:31:00,
2013-07-13 11:36:00,79.3,78.4,30.01,ESE,123,0.0,6.0,97,0.39,,,0.63,VWS V14.00,2013-07-13 15:36:00,
2013-07-13 11:41:00,78.9,78.0,30.02,South,186,0.0,1.0,97,0.35,,,0.64,VWS V14.00,2013-07-13 15:41:00,
2013-07-13 11:46:00,78.8,77.9,30.02,South,178,1.0,4.0,97,0.35,,,0.64,VWS V14.00,2013-07-13 15:46:00,
2013-07-13 11:51:00,78.9,78.0,30.02,SSE,159,0.0,0.0,97,0.35,,,0.64,VWS V14.00,2013-07-13 15:51:00,
2013-07-13 11:57:00,79.0,78.4,30.01,SE,132,0.0,3.0,98,0.35,,,0.64,VWS V14.00,2013-07-13 15:57:00,
2013-07-13 12:02:00,79.0,78.4,30.01,SE,144,5.0,6.0,98,0.34,,,0.64,VWS V14.00,2013-07-13 16:02:00,
2013-07-13 12:07:00,79.1,78.5,30.01,SE,138,6.0,6.0,98,0.34,,,0.64,VWS V14.00,2013-07-13 16:07:00,
2013-07-13 12:12:00,78.9,78.3,30.02,SE,125,1.0,5.0,98,0.13,,,0.65,VWS V14.00,2013-07-13 16:12:00,
2013-07-13 12:17:00,78.3,77.4,30.02,WSW,248,1.0,11.0,97,0.16,,,0.68,VWS V14.00,2013-07-13 16:17:00,
2013-07-13 12:22:00,78.0,77.1,30.02,SE,129,3.0,3.0,97,0.13,,,0.69,VWS V14.00,2013-07-13 16:22:00,
2013-07-13 12:28:00,77.7,76.8,30.03,South,169,0.0,9.0,97,0.14,,,0.70,VWS V14.00,2013-07-13 16:28:00,
2013-07-13 12:33:00,77.5,76.6,30.03,NE,42,2.0,10.0,97,0.20,,,0.76,VWS V14.00,2013-07-13 16:33:00,
2013-07-13 12:38:00,77.4,76.8,30.02,East,99,1.0,10.0,98,0.23,,,0.79,VWS V14.00,2013-07-13 16:38:00,
2013-07-13 12:43:00,77.5,76.9,30.02,SE,145,0.0,1.0,98,0.15,,,0.79,VWS V14.00,2013-07-13 16:43:00,
2013-07-13 12:48:00,77.8,77.2,30.02,ESE,106,1.0,2.0,98,0.15,,,0.79,VWS V14.00,2013-07-13 16:48:00,
2013-07-13 12:54:00,78.6,78.3,30.02,East,99,7.0,8.0,99,0.15,,,0.79,VWS V14.00,2013-07-13 16:54:00,
2013-07-13 12:59:00,79.2,78.9,30.02,SSE,150,2.0,8.0,99,0.15,,,0.79,VWS V14.00,2013-07-13 16:59:00,
2013-07-13 13:04:00,79.6,79.3,30.02,NE,50,0.0,3.0,99,0.15,,,0.79,VWS V14.00,2013-07-13 17:04:00,
2013-07-13 13:09:00,80.0,79.4,30.01,East,91,3.0,7.0,98,0.15,,,0.79,VWS V14.00,2013-07-13 17:09:00,
2013-07-13 13:15:00,80.2,79.3,30.02,ESE,120,2.0,14.0,97,0.14,,,0.79,VWS V14.00,2013-07-13 17:15:00,
2013-07-13 13:20:00,80.3,79.1,30.02,East,80,1.0,14.0,96,0.14,,,0.79,VWS V14.00,2013-07-13 17:20:00,
2013-07-13 13:25:00,80.8,79.2,30.02,ENE,61,1.0,5.0,95,0.10,,,0.79,VWS V14.00,2013-07-13 17:25:00,
2013-07-13 13:30:00,81.6,80.0,30.02,WSW,242,0.0,5.0,95,0.10,,,0.79,VWS V14.00,2013-07-13 17:30:00,
2013-07-13 13:35:00,82.0,79.8,30.01,SSW,198,3.0,7.0,93,0.07,,,0.79,VWS V14.00,2013-07-13 17:35:00,
2013-07-13 13:41:00,82.4,79.2,30.01,East,91,1.0,12.0,90,0.07,,,0.79,VWS V14.00,2013-07-13 17:41:00,
2013-07-13 13:46:00,82.6,80.0,30.01,ESE,103,1.0,4.0,92,0.00,,,0.79,VWS V14.00,2013-07-13 17:46:00,
2013-07-13 13:51:00,82.8,79.6,30.01,East,92,5.0,10.0,90,0.00,,,0.79,VWS V14.00,2013-07-13 17:51:00,
2013-07-13 13:56:00,81.5,78.3,30.02,ESE,115,2.0,11.0,90,0.05,,,0.84,VWS V14.00,2013-07-13 17:56:00,
2013-07-13 14:01:00,79.8,76.9,30.01,East,99,2.0,11.0,91,0.08,,,0.87,VWS V14.00,2013-07-13 18:01:00,
2013-07-13 14:06:00,78.9,76.7,30.01,SSW,212,0.0,6.0,93,0.08,,,0.87,VWS V14.00,2013-07-13 18:06:00,
2013-07-13 14:11:00,79.2,77.7,30.01,East,100,0.0,2.0,95,0.08,,,0.87,VWS V14.00,2013-07-13 18:11:00,
2013-07-13 14:16:00,80.0,79.1,30.01,NW,309,0.0,8.0,97,0.08,,,0.87,VWS V14.00,2013-07-13 18:16:00,
2013-07-13 14:22:00,80.9,80.0,30.01,SW,227,5.0,16.0,97,0.08,,,0.87,VWS V14.00,2013-07-13 18:22:00,
2013-07-13 14:27:00,80.5,78.6,30.02,SE,128,6.0,16.0,94,0.08,,,0.87,VWS V14.00,2013-07-13 18:27:00,
2013-07-13 14:32:00,79.8,77.6,30.02,SW,217,2.0,4.0,93,0.08,,,0.87,VWS V14.00,2013-07-13 18:32:00,
2013-07-13 14:37:00,79.4,77.5,30.02,South,183,0.0,4.0,94,0.08,,,0.87,VWS V14.00,2013-07-13 18:37:00,
2013-07-13 14:42:00,78.7,76.5,30.02,ESE,116,0.0,4.0,93,0.08,,,0.87,VWS V14.00,2013-07-13 18:42:00,
2013-07-13 14:47:00,78.8,77.2,30.02,SSW,198,0.0,11.0,95,0.08,,,0.87,VWS V14.00,2013-07-13 18:47:00,
2013-07-13 14:52:00,79.0,77.4,30.02,SE,130,1.0,6.0,95,0.08,,,0.87,VWS V14.00,2013-07-13 18:52:00,
2013-07-13 14:58:00,78.9,77.7,30.02,East,89,8.0,9.0,96,0.10,,,0.89,VWS V14.00,2013-07-13 18:58:00,
2013-07-13 15:03:00,79.0,77.8,30.02,ESE,121,4.0,10.0,96,0.03,,,0.90,VWS V14.00,2013-07-13 19:03:00,
2013-07-13 15:08:00,79.5,78.6,30.02,ESE,121,3.0,10.0,97,0.03,,,0.90,VWS V14.00,2013-07-13 19:08:00,
2013-07-13 15:13:00,79.9,79.0,30.02,East,92,5.0,5.0,97,0.03,,,0.90,VWS V14.00,2013-07-13 19:13:00,
2013-07-13 15:18:00,80.2,79.3,30.01,SSW,213,1.0,6.0,97,0.03,,,0.90,VWS V14.00,2013-07-13 19:18:00,
2013-07-13 15:24:00,80.5,79.6,30.01,ESE,121,2.0,10.0,97,0.03,,,0.90,VWS V14.00,2013-07-13 19:24:00,
2013-07-13 15:29:00,80.5,78.9,30.00,East,100,1.0,10.0,95,0.03,,,0.90,VWS V14.00,2013-07-13 19:29:00,
2013-07-13 15:34:00,80.4,78.8,30.00,WSW,253,3.0,3.0,95,0.03,,,0.90,VWS V14.00,2013-07-13 19:34:00,
2013-07-13 15:39:00,80.1,78.2,30.00,ENE,60,0.0,5.0,94,0.03,,,0.90,VWS V14.00,2013-07-13 19:39:00,
2013-07-13 15:44:00,79.9,78.3,30.00,ESE,119,3.0,4.0,95,0.03,,,0.90,VWS V14.00,2013-07-13 19:44:00,
2013-07-13 15:49:00,80.3,79.1,30.00,NE,53,0.0,5.0,96,0.03,,,0.90,VWS V14.00,2013-07-13 19:49:00,
2013-07-13 15:55:00,80.9,79.3,29.99,SE,126,1.0,7.0,95,0.03,,,0.90,VWS V14.00,2013-07-13 19:55:00,
2013-07-13 16:00:00,81.4,79.5,29.99,East,94,4.0,14.0,94,0.03,,,0.90,VWS V14.00,2013-07-13 20:00:00,
2013-07-13 16:05:00,81.5,79.6,29.99,ESE,121,10.0,16.0,94,0.01,,,0.90,VWS V14.00,2013-07-13 20:05:00,
2013-07-13 16:10:00,81.4,79.2,29.99,East,90,2.0,16.0,93,0.01,,,0.90,VWS V14.00,2013-07-13 20:10:00,
2013-07-13 16:15:00,81.3,79.1,29.99,East,88,3.0,11.0,93,0.00,,,0.90,VWS V14.00,2013-07-13 20:15:00,
2013-07-13 16:20:00,81.6,79.4,29.99,ESE,105,0.0,11.0,93,0.00,,,0.90,VWS V14.00,2013-07-13 20:20:00,
2013-07-13 16:25:00,81.9,79.3,29.99,NE,55,3.0,6.0,92,0.00,,,0.90,VWS V14.00,2013-07-13 20:25:00,
2013-07-13 16:30:00,82.1,78.5,30.00,ESE,111,4.0,12.0,89,0.00,,,0.90,VWS V14.00,2013-07-13 20:30:00,
2013-07-13 16:35:00,82.1,78.5,30.00,ESE,115,7.0,15.0,89,0.00,,,0.90,VWS V14.00,2013-07-13 20:35:00,
2013-07-13 16:41:00,82.4,78.8,30.00,SE,128,7.0,15.0,89,0.00,,,0.90,VWS V14.00,2013-07-13 20:41:00,
2013-07-13 16:46:00,82.4,78.8,30.00,SSE,163,0.0,16.0,89,0.00,,,0.90,VWS V14.00,2013-07-13 20:46:00,
2013-07-13 16:51:00,82.5,78.9,30.00,NE,35,3.0,16.0,89,0.00,,,0.90,VWS V14.00,2013-07-13 20:51:00,
2013-07-13 16:56:00,82.1,78.2,30.00,South,191,2.0,14.0,88,0.00,,,0.90,VWS V14.00,2013-07-13 20:56:00,
2013-07-13 17:01:00,81.8,78.2,30.00,SE,146,9.0,14.0,89,0.00,,,0.90,VWS V14.00,2013-07-13 21:01:00,
2013-07-13 17:06:00,81.4,78.2,30.00,WSW,254,1.0,9.0,90,0.00,,,0.90,VWS V14.00,2013-07-13 21:06:00,
2013-07-13 17:11:00,81.3,78.4,30.00,East,80,4.0,6.0,91,0.00,,,0.90,VWS V14.00,2013-07-13 21:11:00,
2013-07-13 17:16:00,80.8,78.3,30.01,ESE,113,3.0,7.0,92,0.00,,,0.90,VWS V14.00,2013-07-13 21:16:00,
2013-07-13 17:22:00,80.5,78.0,30.01,SE,124,0.0,4.0,92,0.00,,,0.90,VWS V14.00,2013-07-13 21:22:00,
2013-07-13 17:27:00,80.4,77.9,30.01,SSW,210,0.0,4.0,92,0.00,,,0.90,VWS V14.00,2013-07-13 21:27:00,
2013-07-13 17:32:00,80.4,77.9,30.02,North,355,2.0,3.0,92,0.00,,,0.90,VWS V14.00,2013-07-13 21:32:00,
2013-07-13 17:37:00,80.4,77.2,30.01,ESE,117,2.0,11.0,90,0.00,,,0.90,VWS V14.00,2013-07-13 21:37:00,
2013-07-13 17:42:00,80.7,77.8,30.01,WSW,252,2.0,2.0,91,0.00,,,0.90,VWS V14.00,2013-07-13 21:42:00,
2013-07-13 17:47:00,81.1,77.9,30.01,ESE,119,8.0,9.0,90,0.00,,,0.90,VWS V14.00,2013-07-13 21:47:00,
2013-07-13 17:53:00,81.5,77.6,30.02,SE,126,2.0,7.0,88,0.00,,,0.90,VWS V14.00,2013-07-13 21:53:00,
2013-07-13 17:58:00,82.0,78.4,30.02,SSW,195,4.0,10.0,89,0.00,,,0.90,VWS V14.00,2013-07-13 21:58:00,
2013-07-13 18:03:00,82.3,78.4,30.02,SSE,163,5.0,5.0,88,0.00,,,0.90,VWS V14.00,2013-07-13 22:03:00,
2013-07-13 18:08:00,82.3,77.7,30.03,South,183,4.0,7.0,86,0.00,,,0.90,VWS V14.00,2013-07-13 22:08:00,
2013-07-13 18:13:00,82.2,77.6,30.03,SE,129,1.0,12.0,86,0.00,,,0.90,VWS V14.00,2013-07-13 22:13:00,
2013-07-13 18:18:00,82.0,77.4,30.03,SSE,150,1.0,12.0,86,0.00,,,0.90,VWS V14.00,2013-07-13 22:18:00,
2013-07-13 18:24:00,81.8,77.9,30.03,NNE,29,1.0,10.0,88,0.00,,,0.90,VWS V14.00,2013-07-13 22:24:00,
2013-07-13 18:29:00,81.6,77.7,30.03,ESE,119,5.0,10.0,88,0.00,,,0.90,VWS V14.00,2013-07-13 22:29:00,
2013-07-13 18:34:00,81.3,77.8,30.03,WNW,296,3.0,4.0,89,0.00,,,0.90,VWS V14.00,2013-07-13 22:34:00,
2013-07-13 18:39:00,81.1,77.2,30.03,East,96,2.0,6.0,88,0.00,,,0.90,VWS V14.00,2013-07-13 22:39:00,
2013-07-13 18:44:00,80.9,77.4,30.04,SSE,159,4.0,7.0,89,0.00,,,0.90,VWS V14.00,2013-07-13 22:44:00,
2013-07-13 18:50:00,80.8,77.3,30.05,SSE,153,2.0,11.0,89,0.00,,,0.90,VWS V14.00,2013-07-13 22:50:00,
2013-07-13 18:55:00,80.8,77.3,30.05,SSW,210,1.0,7.0,89,0.00,,,0.90,VWS V14.00,2013-07-13 22:55:00,
2013-07-13 19:00:00,80.7,77.5,30.05,ENE,61,1.0,7.0,90,0.00,,,0.90,VWS V14.00,2013-07-13 23:00:00,
2013-07-13 19:05:00,80.7,77.2,30.05,SSW,211,0.0,10.0,89,0.00,,,0.90,VWS V14.00,2013-07-13 23:05:00,
2013-07-13 19:10:00,80.7,77.2,30.05,NE,42,2.0,10.0,89,0.00,,,0.90,VWS V14.00,2013-07-13 23:10:00,
2013-07-13 19:16:00,80.7,77.2,30.05,SSE,163,1.0,6.0,89,0.00,,,0.90,VWS V14.00,2013-07-13 23:16:00,
2013-07-13 19:21:00,80.7,77.2,30.05,SSE,148,1.0,9.0,89,0.00,,,0.90,VWS V14.00,2013-07-13 23:21:00,
2013-07-13 19:26:00,80.6,76.7,30.05,SE,138,1.0,6.0,88,0.00,,,0.90,VWS V14.00,2013-07-13 23:26:00,
2013-07-13 19:31:00,80.5,76.6,30.05,East,89,2.0,6.0,88,0.00,,,0.90,VWS V14.00,2013-07-13 23:31:00,
2013-07-13 19:36:00,80.4,76.5,30.05,SE,136,1.0,5.0,88,0.00,,,0.90,VWS V14.00,2013-07-13 23:36:00,
2013-07-13 19:41:00,80.3,76.4,30.05,SSE,161,0.0,0.0,88,0.00,,,0.90,VWS V14.00,2013-07-13 23:41:00,
2013-07-13 19:46:00,80.2,76.3,30.06,SE,126,1.0,4.0,88,0.00,,,0.90,VWS V14.00,2013-07-13 23:46:00,
2013-07-13 19:51:00,80.1,76.2,30.06,West,277,1.0,3.0,88,0.00,,,0.90,VWS V14.00,2013-07-13 23:51:00,
2013-07-13 19:57:00,80.0,76.1,30.06,East,91,0.0,4.0,88,0.00,,,0.90,VWS V14.00,2013-07-13 23:57:00,
2013-07-13 20:02:00,79.9,76.4,30.06,ENE,64,0.0,1.0,89,0.00,,,0.90,VWS V14.00,2013-07-14 00:02:00,
2013-07-13 20:07:00,79.8,76.3,30.07,ESE,111,2.0,4.0,89,0.00,,,0.90,VWS V14.00,2013-07-14 00:07:00,
2013-07-13 20:12:00,79.7,76.2,30.07,SE,126,1.0,3.0,89,0.00,,,0.90,VWS V14.00,2013-07-14 00:12:00,
2013-07-13 20:17:00,79.6,76.1,30.07,SE,146,0.0,7.0,89,0.00,,,0.90,VWS V14.00,2013-07-14 00:17:00,
2013-07-13 20:23:00,79.6,76.1,30.07,SE,134,0.0,4.0,89,0.00,,,0.90,VWS V14.00,2013-07-14 00:23:00,
2013-07-13 20:28:00,79.6,76.1,30.07,SE,138,0.0,4.0,89,0.00,,,0.90,VWS V14.00,2013-07-14 00:28:00,
2013-07-13 20:33:00,79.6,76.1,30.07,SSE,163,1.0,3.0,89,0.00,,,0.90,VWS V14.00,2013-07-14 00:33:00,
2013-07-13 20:38:00,79.6,76.1,30.07,ESE,104,1.0,5.0,89,0.00,,,0.90,VWS V14.00,2013-07-14 00:38:00,
2013-07-13 20:43:00,79.5,76.3,30.07,SE,130,0.0,2.0,90,0.00,,,0.90,VWS V14.00,2013-07-14 00:43:00,
2013-07-13 20:48:00,79.5,76.0,30.07,ENE,72,2.0,4.0,89,0.00,,,0.90,VWS V14.00,2013-07-14 00:48:00,
2013-07-13 20:54:00,79.4,76.2,30.07,ESE,119,1.0,4.0,90,0.00,,,0.90,VWS V14.00,2013-07-14 00:54:00,
2013-07-13 20:59:00,79.4,76.2,30.07,SE,127,2.0,4.0,90,0.00,,,0.90,VWS V14.00,2013-07-14 00:59:00,
2013-07-13 21:04:00,79.4,76.2,30.07,SE,132,0.0,7.0,90,0.00,,,0.90,VWS V14.00,2013-07-14 01:04:00,
2013-07-13 21:09:00,79.3,76.1,30.08,ENE,75,3.0,7.0,90,0.00,,,0.90,VWS V14.00,2013-07-14 01:09:00,
2013-07-13 21:14:00,79.3,76.1,30.08,SE,134,1.0,2.0,90,0.00,,,0.90,VWS V14.00,2013-07-14 01:14:00,
2013-07-13 21:19:00,79.3,76.1,30.08,SE,126,0.0,3.0,90,0.00,,,0.90,VWS V14.00,2013-07-14 01:19:00,
2013-07-13 21:25:00,79.3,76.1,30.08,ESE,116,2.0,5.0,90,0.00,,,0.90,VWS V14.00,2013-07-14 01:25:00,
2013-07-13 21:30:00,79.3,76.1,30.08,SSE,148,0.0,9.0,90,0.00,,,0.90,VWS V14.00,2013-07-14 01:30:00,
2013-07-13 21:35:00,79.2,76.0,30.09,East,82,0.0,2.0,90,0.00,,,0.90,VWS V14.00,2013-07-14 01:35:00,
2013-07-13 21:40:00,79.1,75.9,30.09,WSW,254,0.0,2.0,90,0.00,,,0.90,VWS V14.00,2013-07-14 01:40:00,
2013-07-13 21:45:00,79.0,75.8,30.09,South,175,0.0,3.0,90,0.00,,,0.90,VWS V14.00,2013-07-14 01:45:00,
2013-07-13 21:51:00,79.0,75.8,30.09,SE,142,0.0,3.0,90,0.00,,,0.90,VWS V14.00,2013-07-14 01:51:00,
2013-07-13 21:56:00,78.9,75.7,30.10,ESE,104,5.0,5.0,90,0.00,,,0.90,VWS V14.00,2013-07-14 01:56:00,
2013-07-13 22:01:00,79.0,76.2,30.10,South,171,0.0,9.0,91,0.00,,,0.90,VWS V14.00,2013-07-14 02:01:00,
2013-07-13 22:06:00,78.9,76.1,30.10,East,87,0.0,3.0,91,0.00,,,0.90,VWS V14.00,2013-07-14 02:06:00,
2013-07-13 22:11:00,78.9,76.1,30.10,East,98,0.0,1.0,91,0.00,,,0.90,VWS V14.00,2013-07-14 02:11:00,
2013-07-13 22:16:00,79.0,76.2,30.11,SW,218,0.0,4.0,91,0.00,,,0.90,VWS V14.00,2013-07-14 02:16:00,
2013-07-13 22:21:00,79.0,76.2,30.11,SE,141,0.0,1.0,91,0.00,,,0.90,VWS V14.00,2013-07-14 02:21:00,
2013-07-13 22:26:00,79.0,75.8,30.11,ESE,117,2.0,4.0,90,0.00,,,0.90,VWS V14.00,2013-07-14 02:26:00,
2013-07-13 22:32:00,79.0,75.8,30.11,ESE,107,0.0,2.0,90,0.00,,,0.90,VWS V14.00,2013-07-14 02:32:00,
2013-07-13 22:37:00,79.0,75.8,30.11,SSE,157,0.0,2.0,90,0.00,,,0.90,VWS V14.00,2013-07-14 02:37:00,
2013-07-13 22:42:00,78.9,75.7,30.11,ESE,122,0.0,0.0,90,0.00,,,0.90,VWS V14.00,2013-07-14 02:42:00,
2013-07-13 22:47:00,78.9,75.7,30.11,SSE,150,2.0,5.0,90,0.00,,,0.90,VWS V14.00,2013-07-14 02:47:00,
2013-07-13 22:52:00,79.0,75.8,30.11,NNE,26,0.0,2.0,90,0.00,,,0.90,VWS V14.00,2013-07-14 02:52:00,
2013-07-13 22:57:00,78.9,75.7,30.11,East,96,0.0,2.0,90,0.00,,,0.90,VWS V14.00,2013-07-14 02:57:00,
2013-07-13 23:03:00,78.8,75.6,30.11,SE,124,2.0,2.0,90,0.00,,,0.90,VWS V14.00,2013-07-14 03:03:00,
2013-07-13 23:08:00,78.8,75.6,30.11,ESE,122,1.0,3.0,90,0.00,,,0.90,VWS V14.00,2013-07-14 03:08:00,
2013-07-13 23:13:00,78.7,75.5,30.11,East,97,0.0,2.0,90,0.00,,,0.90,VWS V14.00,2013-07-14 03:13:00,
2013-07-13 23:18:00,78.6,75.4,30.12,East,96,0.0,2.0,90,0.00,,,0.90,VWS V14.00,2013-07-14 03:18:00,
2013-07-13 23:23:00,78.5,75.7,30.12,SSE,155,0.0,0.0,91,0.00,,,0.90,VWS V14.00,2013-07-14 03:23:00,
2013-07-13 23:28:00,78.5,75.7,30.12,SE,136,1.0,5.0,91,0.00,,,0.90,VWS V14.00,2013-07-14 03:28:00,
2013-07-13 23:33:00,78.5,75.3,30.12,ESE,121,1.0,4.0,90,0.00,,,0.90,VWS V14.00,2013-07-14 03:33:00,
2013-07-13 23:39:00,78.5,75.3,30.12,ENE,68,0.0,4.0,90,0.00,,,0.90,VWS V14.00,2013-07-14 03:39:00,
2013-07-13 23:44:00,78.4,75.2,30.12,ENE,70,1.0,2.0,90,0.00,,,0.90,VWS V14.00,2013-07-14 03:44:00,
2013-07-13 23:49:00,78.3,75.1,30.12,ENE,69,0.0,2.0,90,0.00,,,0.90,VWS V14.00,2013-07-14 03:49:00,
2013-07-13 23:54:00,78.2,75.0,30.12,ENE,70,0.0,0.0,90,0.00,,,0.90,VWS V14.00,2013-07-14 03:54:00,
2013-07-13 23:55:00,78.2,75.0,30.12,ENE,70,0.0,0.0,90,0.00,,,0.90,VWS V14.00,2013-07-14 03:55:00,